Location: Neuvy Saint Sepulchre
(46.5953°N, 1.8122°E)
Time: 09:26:46
(UTC+02:00)

ISS - Pass Details

Date: 15 July 2021
Orbit: 419 x 421 km, 51.6° (Epoch: 04 August)

Event Time Altitude Azimuth Distance (km) Brightness Sun altitude
Rises 04:31:28 0° 295° (WNW) 2,371 0.0 -13.7°
Reaches altitude 10° 04:33:35 10° 292° (WNW) 1,504 -1.1 -13.5°
Maximum altitude 04:36:55 62° 211° (SSW) 476 -3.8 -13.1°
Drops below altitude 10° 04:40:15 10° 130° (SE) 1,495 -1.0 -12.8°
Sets 04:42:21 0° 127° (SE) 2,356 0.1 -12.5°
